Erie, CO

3:33 PM MDT on June 24, 2018 (GMT -0600)
Erie Municipal Airport

Weather History for KEIK - March, 2010

Change the Weather History Date:

Sunday, March 7, 2010

  Actual Average (WUND) Record (WUND)
Temperature  
Mean Temperature 37 °F -  
Max Temperature 46 °F - - (-1)
Min Temperature 28 °F - - (-1)
Degree Days  
Heating Degree Days 28    
Moisture  
Dew Point 33 °F    
Average Humidity 89    
Maximum Humidity 100    
Minimum Humidity 62    
Precipitation  
Precipitation 0.00 in - - ()
Sea Level Pressure  
Sea Level Pressure 29.93 in    
Wind  
Wind Speed 3 mph (North)    
Max Wind Speed 9 mph    
Max Gust Speed -    
Visibility 7 miles    
Events Fog    
Averages and records for this station are not official NWS values.
T = Trace of Precipitation, MM = Missing Value Source: NWS Daily Summary

Daily Weather History Graph

Daily Weather History Graph

Search for Another Location

Airport or City:

Astronomy

Mar. 07, 2010 Rise Set
Actual Time 6:24 AM MST 5:58 PM MST
Civil Twilight 5:57 AM MST 6:25 PM MST
Nautical Twilight 5:25 AM MST 6:57 PM MST
Astronomical Twilight 4:54 AM MST 7:28 PM MST
Moon 1:20 AM MST (3/7) 10:29 AM MST (3/7)
Length of Visible Light 12h 28m
Length of Day
11h 34m
Waning Gibbous, 49% of the Moon is Illuminated
Mar 7
Waning Gibbous
Mar 15
New
Mar 23
First Quarter
Mar 29
Full
Apr 6
Last Quarter

Hourly Weather History & Observations

Time (MST) Temp. Windchill Dew Point Humidity Pressure Visibility Wind Dir Wind Speed Gust Speed Precip Events Conditions
12:15 AM 35.6 °F 30.7 °F 32.0 °F 87% 30.07 in 10.0 mi ESE 5.8 mph - N/A   Scattered Clouds
12:35 AM 35.6 °F 29.9 °F 33.8 °F 93% 30.07 in 10.0 mi ESE 6.9 mph - N/A   Mostly Cloudy
12:55 AM 35.6 °F 30.7 °F 33.8 °F 93% 30.06 in 10.0 mi SE 5.8 mph - N/A   Overcast
1:15 AM 35.6 °F 31.7 °F 32.0 °F 87% 30.05 in 10.0 mi SSE 4.6 mph - N/A   Mostly Cloudy
1:35 AM 33.8 °F 30.8 °F 32.0 °F 93% 30.05 in 10.0 mi ESE 3.5 mph - N/A   Mostly Cloudy
1:55 AM 32.0 °F 24.2 °F 32.0 °F 100% 30.05 in 10.0 mi ESE 9.2 mph - N/A   Scattered Clouds
2:15 AM 33.8 °F - 32.0 °F 93% 30.04 in 10.0 mi Calm Calm - N/A   Clear
2:35 AM 32.0 °F 27.5 °F 32.0 °F 100% 30.03 in 10.0 mi NW 4.6 mph - N/A   Clear
2:55 AM 32.0 °F 28.7 °F 32.0 °F 100% 30.03 in 7.0 mi North 3.5 mph - N/A   Clear
3:15 AM 32.0 °F - 32.0 °F 100% 30.02 in 7.0 mi Calm Calm - N/A   Clear
3:35 AM 32.0 °F - 32.0 °F 100% 30.02 in 7.0 mi Calm Calm - N/A   Clear
3:55 AM 30.2 °F - 30.2 °F 100% 30.01 in 4.0 mi Calm Calm - N/A   Clear
4:15 AM 30.2 °F - 30.2 °F 100% 30.01 in 4.0 mi Calm Calm - N/A   Clear
4:35 AM 28.4 °F - 28.4 °F 100% 30.01 in 4.0 mi Calm Calm - N/A   Scattered Clouds
4:55 AM 30.2 °F 26.7 °F 30.2 °F 100% 30.01 in 5.0 mi WNW 3.5 mph - N/A   Overcast
5:15 AM 32.0 °F - 32.0 °F 100% 30.01 in 5.0 mi Calm Calm - N/A   Overcast
5:35 AM 32.0 °F 28.7 °F 32.0 °F 100% 30.01 in 1.8 mi WNW 3.5 mph - N/A   Overcast
5:55 AM 32.0 °F 26.4 °F 32.0 °F 100% 30.01 in 1.5 mi NNW 5.8 mph - N/A   Overcast
6:15 AM 32.0 °F 25.6 °F 32.0 °F 100% 30.01 in 1.5 mi North 6.9 mph - N/A   Overcast
6:35 AM 32.0 °F 27.5 °F 32.0 °F 100% 30.01 in 0.2 mi NNW 4.6 mph - N/A Fog Light Freezing Fog
6:55 AM 32.0 °F 27.5 °F 32.0 °F 100% 30.01 in 0.2 mi North 4.6 mph - N/A Fog Light Freezing Fog
7:15 AM 32.0 °F 28.7 °F 32.0 °F 100% 30.01 in 0.2 mi North 3.5 mph - N/A Fog Light Freezing Fog
7:35 AM 32.0 °F 28.7 °F 32.0 °F 100% 30.01 in 0.2 mi North 3.5 mph - N/A Fog Light Freezing Fog
7:55 AM 32.0 °F 28.7 °F 32.0 °F 100% 30.00 in 0.2 mi NNW 3.5 mph - N/A Fog Fog
8:15 AM 32.0 °F 28.7 °F 32.0 °F 100% 30.00 in 0.2 mi North 3.5 mph - N/A Fog Fog
8:35 AM 32.0 °F - 32.0 °F 100% 29.99 in 0.5 mi Calm Calm - N/A Fog Fog
8:55 AM 32.0 °F 28.7 °F 32.0 °F 100% 29.99 in 1.2 mi NNE 3.5 mph - N/A   Overcast
9:15 AM 32.0 °F 28.7 °F 32.0 °F 100% 29.98 in 1.8 mi NE 3.5 mph - N/A   Overcast
9:35 AM 32.0 °F - 32.0 °F 100% 29.98 in 2.5 mi Calm Calm - N/A   Overcast
9:55 AM 32.0 °F 28.7 °F 32.0 °F 100% 29.98 in 4.0 mi NE 3.5 mph - N/A   Overcast
10:15 AM 32.0 °F - 32.0 °F 100% 29.97 in 3.0 mi Calm Calm - N/A   Overcast
10:35 AM 33.8 °F 30.8 °F 33.8 °F 100% 29.96 in 4.0 mi North 3.5 mph - N/A   Overcast
10:55 AM 33.8 °F - 33.8 °F 100% 29.96 in 5.0 mi Calm Calm - N/A   Overcast
11:15 AM 33.8 °F - 33.8 °F 100% 29.95 in 5.0 mi Calm Calm - N/A   Overcast
11:35 AM 35.6 °F 31.7 °F 33.8 °F 93% 29.94 in 7.0 mi NNE 4.6 mph - N/A   Overcast
11:55 AM 35.6 °F 31.7 °F 33.8 °F 93% 29.93 in 7.0 mi NNE 4.6 mph - N/A   Overcast
12:15 PM 35.6 °F - 33.8 °F 93% 29.92 in 7.0 mi Calm Calm - N/A   Overcast
12:35 PM 37.4 °F 33.8 °F 33.8 °F 87% 29.90 in 7.0 mi NE 4.6 mph - N/A   Overcast
12:55 PM 37.4 °F - 33.8 °F 87% 29.89 in 10.0 mi Calm Calm - N/A   Overcast
1:15 PM 39.2 °F 37.0 °F 33.8 °F 81% 29.88 in 10.0 mi NNE 3.5 mph - N/A   Overcast
1:35 PM 41.0 °F - 33.8 °F 76% 29.87 in 7.0 mi Calm Calm - N/A   Scattered Clouds
1:55 PM 41.0 °F 38.0 °F 33.8 °F 76% 29.85 in 10.0 mi NNW 4.6 mph - N/A   Scattered Clouds
2:15 PM 42.8 °F - 33.8 °F 70% 29.84 in 10.0 mi Calm Calm - N/A   Clear
2:35 PM 42.8 °F 40.1 °F 33.8 °F 70% 29.84 in 10.0 mi NNE 4.6 mph - N/A   Clear
2:55 PM 44.6 °F 43.1 °F 33.8 °F 66% 29.83 in 10.0 mi NNE 3.5 mph - N/A   Clear
3:15 PM 44.6 °F - 33.8 °F 66% 29.83 in 10.0 mi Calm Calm - N/A   Clear
3:35 PM 44.6 °F 43.1 °F 33.8 °F 66% 29.82 in 10.0 mi North 3.5 mph - N/A   Clear
3:55 PM 44.6 °F - 33.8 °F 66% 29.80 in 10.0 mi Calm Calm - N/A   Clear
4:15 PM 46.4 °F 45.2 °F 33.8 °F 62% 29.79 in 10.0 mi WNW 3.5 mph - N/A   Clear
4:35 PM 46.4 °F 45.2 °F 33.8 °F 62% 29.79 in 10.0 mi North 3.5 mph - N/A   Clear
4:55 PM 44.6 °F 42.2 °F 33.8 °F 66% 29.78 in 10.0 mi North 4.6 mph - N/A   Clear
5:15 PM 44.6 °F 43.1 °F 33.8 °F 66% 29.78 in 10.0 mi North 3.5 mph - N/A   Clear
5:35 PM 42.8 °F 40.1 °F 33.8 °F 70% 29.77 in 10.0 mi NNW 4.6 mph - N/A   Clear
5:55 PM 41.0 °F 39.0 °F 33.8 °F 76% 29.78 in 10.0 mi NNW 3.5 mph - N/A   Clear
6:15 PM 39.2 °F - 33.8 °F 81% 29.77 in 10.0 mi Calm Calm - N/A   Clear
6:35 PM 37.4 °F - 33.8 °F 87% 29.77 in 10.0 mi Calm Calm - N/A   Clear
6:55 PM 37.4 °F - 33.8 °F 87% 29.78 in 10.0 mi Calm Calm - N/A   Clear
7:15 PM 35.6 °F - 32.0 °F 87% 29.79 in 10.0 mi Calm Calm - N/A   Clear
7:35 PM 35.6 °F - 32.0 °F 87% 29.77 in 7.0 mi Calm Calm - N/A   Scattered Clouds
7:55 PM 33.8 °F - 32.0 °F 93% 29.79 in 7.0 mi Calm Calm - N/A   Scattered Clouds
8:15 PM 32.0 °F - 32.0 °F 100% 29.79 in 7.0 mi Calm Calm - N/A   Scattered Clouds
8:35 PM 33.8 °F - 32.0 °F 93% 29.79 in 7.0 mi Calm Calm - N/A   Mostly Cloudy
8:55 PM 33.8 °F 29.6 °F 32.0 °F 93% 29.80 in 7.0 mi South 4.6 mph - N/A   Overcast
9:15 PM 35.6 °F - 33.8 °F 93% 29.80 in 7.0 mi Calm Calm - N/A   Overcast
9:35 PM 35.6 °F - 33.8 °F 93% 29.79 in 7.0 mi Calm Calm - N/A   Overcast
9:55 PM 37.4 °F - 33.8 °F 87% 29.79 in 7.0 mi Calm Calm - N/A   Overcast
10:15 PM 35.6 °F 32.8 °F 32.0 °F 87% 29.79 in 7.0 mi SSE 3.5 mph - N/A   Mostly Cloudy
10:35 PM 33.8 °F - 33.8 °F 100% 29.79 in 5.0 mi Calm Calm - N/A   Clear
10:55 PM 33.8 °F 30.8 °F 32.0 °F 93% 29.77 in 5.0 mi South 3.5 mph - N/A   Clear
11:15 PM 37.4 °F 32.1 °F 33.8 °F 87% 29.77 in 7.0 mi West 6.9 mph - N/A   Mostly Cloudy
11:35 PM 37.4 °F 34.9 °F 33.8 °F 87% 29.77 in 7.0 mi SW 3.5 mph - N/A   Overcast
11:55 PM 35.6 °F - 33.8 °F 93% 29.76 in 7.0 mi Calm Calm - N/A   Overcast